Location: Hilton Head Island
(32.2163°N, 80.7526°W)
Time: 19:44:00
(UTC-05:00)

Transit 2A - Pass Details

Date: 21 February 2026
Orbit: 590 x 954 km, 66.7° (Epoch: 7 March)

Event Time Altitude Azimuth Distance (km) Brightness Sun altitude
Rises 20:09:30 0° 348° (NNW) 3,517 9.6 -25.0°
Reaches altitude 10° 20:12:44 10° 3° (N) 2,517 8.7 -25.7°
Enters shadow 20:14:13 15° 15° (NNE) 2,138 8.2 -26.0°
